TimeCST,TemperatureF,Dew PointF,Humidity,Sea Level PressureIn,VisibilityMPH,Wind Direction,Wind SpeedMPH,Gust SpeedMPH,PrecipitationIn,Events,Conditions,WindDirDegrees,DateUTC
12:52 AM,37.9,26.1,62,30.17,10.0,South,13.8,-,N/A,,Clear,190,2013-01-19 06:52:00
1:52 AM,37.9,26.1,62,30.17,10.0,South,12.7,-,N/A,,Clear,190,2013-01-19 07:52:00
2:52 AM,37.9,26.1,62,30.15,10.0,South,15.0,-,N/A,,Clear,180,2013-01-19 08:52:00
3:52 AM,41.0,28.0,60,30.13,10.0,SSW,12.7,-,N/A,,Clear,200,2013-01-19 09:52:00
4:52 AM,39.9,28.0,63,30.12,10.0,South,12.7,-,N/A,,Clear,180,2013-01-19 10:52:00
5:52 AM,41.0,28.9,62,30.12,10.0,SSW,15.0,-,N/A,,Clear,200,2013-01-19 11:52:00
6:52 AM,44.1,30.0,58,30.12,10.0,SSW,19.6,-,N/A,,Clear,210,2013-01-19 12:52:00
7:52 AM,44.1,30.9,60,30.12,10.0,SSW,19.6,-,N/A,,Clear,210,2013-01-19 13:52:00
8:52 AM,48.0,30.9,52,30.12,10.0,SSW,19.6,-,N/A,,Clear,210,2013-01-19 14:52:00
9:52 AM,52.0,32.0,47,30.12,10.0,SW,19.6,-,N/A,,Clear,220,2013-01-19 15:52:00
10:52 AM,55.9,33.1,42,30.12,10.0,SW,20.7,25.3,N/A,,Clear,230,2013-01-19 16:52:00
11:52 AM,57.9,33.1,39,30.10,10.0,WSW,20.7,-,N/A,,Clear,240,2013-01-19 17:52:00
12:52 PM,61.0,33.1,35,30.07,10.0,WSW,19.6,27.6,N/A,,Clear,240,2013-01-19 18:52:00
1:52 PM,61.0,34.0,36,30.05,10.0,SW,18.4,-,N/A,,Clear,230,2013-01-19 19:52:00
2:52 PM,62.6,33.8,34,30.04,10.0,WSW,13.8,-,N/A,,Clear,240,2013-01-19 20:52:00
3:52 PM,62.1,34.0,35,30.04,10.0,WSW,16.1,23.0,N/A,,Clear,250,2013-01-19 21:52:00
4:52 PM,60.1,34.0,38,30.06,10.0,West,11.5,-,N/A,,Clear,260,2013-01-19 22:52:00
5:52 PM,54.0,34.0,47,30.11,10.0,WNW,8.1,-,N/A,,Clear,290,2013-01-19 23:52:00
6:52 PM,50.0,35.1,57,30.13,10.0,West,9.2,-,N/A,,Clear,280,2013-01-20 00:52:00
7:52 PM,50.0,35.1,57,30.15,10.0,West,8.1,-,N/A,,Clear,270,2013-01-20 01:52:00
8:52 PM,43.0,33.1,68,30.16,10.0,WSW,8.1,-,N/A,,Clear,240,2013-01-20 02:52:00
9:52 PM,43.0,33.1,68,30.17,10.0,WSW,8.1,-,N/A,,Clear,250,2013-01-20 03:52:00
10:52 PM,41.0,33.1,73,30.19,10.0,NW,9.2,-,N/A,,Clear,320,2013-01-20 04:52:00
11:52 PM,37.9,32.0,79,30.22,10.0,NNW,6.9,-,N/A,,Clear,340,2013-01-20 05:52:00